LPPTLJLJ

Guest
Details From LPPT - Lisboa
To LJLJ - LJUBLJANA
Flight Number -
Tags decoded
Created
Modified
Stats Distance 1,169 nm / 2,164 km
Max Altitude 0 ft / 0 m
Waypoints 4
Social Downloads 0
Likes 0
Share VATSIM

Download

Looking for another format? Having issues loading an existing format? Contact us
Advertisement - Login to hide

Notes

Requested: LPPT AMBUS LJB11 LJLJ

Route

LPPT AMBUS LJB11 LJLJ

ID Type Via Altitude Latitude Longitude Leg Dist Tot Dist Heading (true) Name
O LPPT APT - 0 ft / 0 m 38.77856˚ -9.13515˚ - 0 nm - Lisboa
AMBUS FIX - 0 ft / 0 m 45.88870˚ 14.85496˚ 1141 nm 1141 nm 60° / 77° -
LJB11 FIX - 0 ft / 0 m 46.10717˚ 14.67726˚ 15 nm 1157 nm 331° / 330° -
O LJLJ APT - 0 ft / 0 m 46.22368˚ 14.45761˚ 11 nm 1168 nm 308° / 307° LJUBLJANA

Altitude Profile

Advertisement - Login to hide

Weather


0- 5 10 15 20 25 30 35+ Temperature / ° C

Clouds and Precipitation
Forecast for 2017-12-19 00:00 UTC. Updated an hour ago

Ground ~20,000 ft ~40,000 ft Winds

LPPT

Details ICAO LPPT (LIS)
Name Lisboa
Region Portugal
Timezone Europe/Lisbon (UTC+0.0)
Stats Elevation 374 ft / 114 m (AMSL)
Location 38.778559° -9.135146°
Runways 2
Magnetic Variation 2.363° W

METAR

LPPT 182030Z 31006KT CAVOK 10/02 Q1031

Decode

TAF

TAF LPPT 181700Z 1818/1924 34007KT CAVOK BECMG 1907/1909 06010KT

Decode

Departure Runways

ID Width Length Bearing (true) Bearing (mag) Surface Threshold Offset Overrun Length
03 148 ft / 45 m 12,518 ft / 3,815 m 22.70° 25.06° Asphalt 296 ft / 90 m 0 ft / 0 m
17 148 ft / 45 m 7,922 ft / 2,415 m 168.38° 170.74° Asphalt 0 ft / 0 m 0 ft / 0 m
21 148 ft / 45 m 12,518 ft / 3,815 m 202.72° 205.08° Asphalt 1,969 ft / 600 m 0 ft / 0 m
35 148 ft / 45 m 7,922 ft / 2,415 m 348.38° 350.74° Asphalt 492 ft / 150 m 0 ft / 0 m

LJLJ

Details ICAO LJLJ (LJU)
Name LJUBLJANA
Region Slovenia
Timezone Europe/Ljubljana (UTC+1.0)
Stats Elevation 1,273 ft / 388 m (AMSL)
Location 46.223685° 14.457608°
Runways 1
Magnetic Variation 3.663° E

METAR

LJLJ 182030Z VRB02KT 4000 BR BKN002 M04/M04 Q1026 NOSIG

Decode

TAF

TAF LJLJ 182000Z 1821/1921 VRB02KT 3500 BR BKN004 TEMPO 1821/1909 2000 OVC002 TEMPO 1909/1921 7000 NSW SCT005

Decode

Destination Runways

ID Width Length Bearing (true) Bearing (mag) Surface Threshold Offset Overrun Length
13 148 ft / 45 m 10,811 ft / 3,295 m 126.47° 122.81° Asphalt 0 ft / 0 m 0 ft / 0 m
31 148 ft / 45 m 10,811 ft / 3,295 m 306.49° 302.83° Asphalt 0 ft / 0 m 0 ft / 0 m

Approach Navaids

Runway Type Ident Frequency Range Bearing (true) Bearing (mag) Slope Elevation
31 Localiser LJB 110.50 MHz 18 nm / 33 km 306.46° 302.80° - 1,282 ft / 391 m (AMSL)
31 Glidescope LJB 110.50 MHz 10 nm / 19 km 306.48° 302.82° 3.00° 1,198 ft / 365 m (AMSL)
31 DME LJB 110.50 MHz 18 nm / 33 km - - - 1,198 ft / 365 m (AMSL)

Popular Alternatives